QPF
0.11 0.08 0.09 0.10 0.10 0.10 0.11 0.14 0.11 0.09 0.08 0.06 0.05 0.04 0.04 0.04 0.04 0.06 0.06 0.04 0.04 0.07 0.09 0.09 0.10 0.16 0.19 0.13 0.09 0.08 0.09 0.09 0.10 0.08 0.07 0.06 0.05 0.04 0.04 0.04 0.04 0.04 0.04
0.12 0.08 0.08 0.10 0.14 0.12 0.11 0.13 0.16 0.11 0.07 0.05 0.04 0.04 0.04 0.03 0.03 0.05 0.05 0.04 0.06 0.06 0.06 0.07 0.07 0.09 0.15 0.15 0.10 0.08 0.09 0.11 0.13 0.10 0.07 0.06 0.05 0.05 0.04 0.04 0.04 0.03 0.03
0.09 0.07 0.06 0.07 0.12 0.13 0.12 0.11 0.14 0.14 0.09 0.05 0.04 0.04 0.03 0.03 0.03 0.04 0.04 0.04 0.05 0.05 0.04 0.05 0.05 0.05 0.07 0.12 0.13 0.15 0.12 0.12 0.14 0.13 0.10 0.06 0.04 0.04 0.04 0.04 0.04 0.04 0.04
0.09 0.06 0.04 0.06 0.10 0.12 0.12 0.09 0.08 0.12 0.15 0.09 0.05 0.04 0.03 0.03 0.03 0.03 0.03 0.03 0.03 0.03 0.04 0.04 0.05 0.03 0.02 0.06 0.09 0.13 0.18 0.15 0.13 0.13 0.11 0.09 0.07 0.05 0.04 0.03 0.03 0.03 0.03
0.09 0.06 0.05 0.06 0.08 0.09 0.09 0.08 0.09 0.09 0.12 0.11 0.06 0.05 0.04 0.03 0.03 0.03 0.02 0.02 0.02 0.02 0.02 0.02 0.03 0.02 0.03 0.04 0.06 0.07 0.15 0.16 0.12 0.11 0.10 0.09 0.07 0.06 0.05 0.04 0.03 0.03 0.03
0.08 0.08 0.05 0.06 0.06 0.08 0.07 0.07 0.09 0.10 0.09 0.09 0.06 0.05 0.04 0.03 0.03 0.03 0.03 0.02 0.02 0.02 0.02 0.02 0.03 0.03 0.04 0.04 0.05 0.06 0.07 0.11 0.12 0.10 0.09 0.08 0.06 0.05 0.05 0.04 0.03 0.02 0.02
0.08 0.10 0.08 0.08 0.07 0.08 0.06 0.05 0.06 0.07 0.08 0.06 0.06 0.06 0.05 0.03 0.03 0.03 0.02 0.02 0.02 0.01 0.02 0.02 0.02 0.03 0.04 0.03 0.03 0.05 0.06 0.06 0.08 0.08 0.07 0.07 0.06 0.04 0.04 0.04 0.03 0.03 0.02
0.07 0.09 0.10 0.09 0.08 0.08 0.07 0.06 0.06 0.06 0.05 0.05 0.05 0.05 0.05 0.04 0.03 0.02 0.02 0.02 0.02 0.01 0.01 0.01 0.01 0.01 0.02 0.03 0.03 0.04 0.06 0.08 0.08 0.06 0.06 0.05 0.04 0.04 0.03 0.04 0.04 0.04 0.03
0.06 0.08 0.10 0.11 0.10 0.08 0.06 0.06 0.06 0.05 0.04 0.03 0.03 0.04 0.05 0.04 0.03 0.02 0.02 0.02 0.02 0.02 0.02 0.02 0.02 0.01 0.01 0.02 0.02 0.02 0.04 0.07 0.10 0.09 0.06 0.04 0.04 0.04 0.05 0.03 0.03 0.04 0.05
0.03 0.03 0.05 0.06 0.09 0.09 0.07 0.06 0.06 0.04 0.04 0.04 0.04 0.03 0.03 0.04 0.04 0.04 0.04 0.03 0.03 0.03 0.03 0.03 0.02 0.03 0.02 0.02 0.02 0.02 0.02 0.04 0.12 0.15 0.11 0.07 0.05 0.04 0.05 0.04 0.04 0.05 0.05
0.03 0.02 0.02 0.04 0.05 0.07 0.07 0.07 0.06 0.06 0.04 0.03 0.03 0.03 0.03 0.04 0.03 0.04 0.05 0.05 0.04 0.04 0.04 0.05 0.04 0.04 0.03 0.02 0.02 0.02 0.02 0.03 0.07 0.16 0.19 0.13 0.08 0.07 0.07 0.05 0.05 0.06 0.07
0.04 0.03 0.03 0.03 0.04 0.05 0.06 0.06 0.05 0.05 0.05 0.03 0.03 0.03 0.04 0.04 0.04 0.04 0.05 0.06 0.06 0.06 0.06 0.07 0.06 0.05 0.04 0.03 0.03 0.04 0.03 0.04 0.05 0.09 0.16 0.17 0.12 0.09 0.07 0.05 0.05 0.06 0.07
0.03 0.02 0.02 0.02 0.03 0.03 0.04 0.06 0.06 0.05 0.05 0.05 0.04 0.04 0.04 0.03 0.03 0.04 0.05 0.06 0.08 0.08 0.07 0.06 0.06 0.06 0.06 0.06 0.06 0.05 0.05 0.05 0.05 0.06 0.11 0.15 0.14 0.10 0.07 0.06 0.05 0.05 0.05
0.04 0.04 0.03 0.03 0.03 0.03 0.02 0.04 0.05 0.04 0.04 0.04 0.04 0.04 0.04 0.04 0.04 0.04 0.06 0.08 0.08 0.08 0.08 0.07 0.07 0.07 0.07 0.07 0.07 0.07 0.06 0.06 0.06 0.06 0.06 0.09 0.15 0.13 0.09 0.07 0.05 0.04 0.04
0.05 0.05 0.05 0.06 0.05 0.05 0.03 0.03 0.03 0.04 0.05 0.05 0.04 0.05 0.05 0.04 0.04 0.04 0.05 0.06 0.08 0.07 0.07 0.08 0.07 0.07 0.07 0.06 0.07 0.07 0.07 0.08 0.07 0.06 0.05 0.04 0.06 0.09 0.09 0.07 0.06 0.04 0.03
0.06 0.06 0.06 0.07 0.07 0.07 0.06 0.05 0.03 0.04 0.05 0.06 0.06 0.06 0.05 0.04 0.03 0.03 0.04 0.05 0.06 0.06 0.06 0.05 0.07 0.07 0.06 0.04 0.04 0.05 0.05 0.05 0.04 0.03 0.03 0.02 0.04 0.05 0.05 0.05 0.05 0.05 0.04
0.06 0.06 0.06 0.07 0.08 0.08 0.09 0.08 0.06 0.06 0.06 0.07 0.07 0.07 0.06 0.05 0.04 0.04 0.04 0.05 0.04 0.05 0.06 0.05 0.06 0.06 0.06 0.05 0.04 0.05 0.03 0.03 0.02 0.01 0.01 0.01 0.01 0.02 0.04 0.04 0.04 0.04 0.04
0.06 0.06 0.06 0.05 0.06 0.07 0.09 0.09 0.09 0.07 0.08 0.08 0.07 0.08 0.08 0.07 0.06 0.04 0.04 0.04 0.03 0.05 0.07 0.06 0.06 0.06 0.06 0.05 0.04 0.04 0.03 0.03 0.02 0.02 0.01 0.01 0.01 0.01 0.02 0.04 0.05 0.05 0.04
0.05 0.06 0.06 0.05 0.05 0.06 0.07 0.08 0.07 0.06 0.06 0.06 0.06 0.07 0.07 0.07 0.06 0.04 0.04 0.04 0.03 0.04 0.06 0.05 0.06 0.06 0.05 0.05 0.04 0.05 0.04 0.04 0.02 0.02 0.02 0.01 0.01 0.01 0.01 0.02 0.03 0.04 0.04
0.05 0.05 0.05 0.06 0.06 0.06 0.06 0.07 0.06 0.06 0.06 0.05 0.04 0.04 0.04 0.04 0.04 0.04 0.04 0.04 0.04 0.05 0.07 0.07 0.06 0.06 0.05 0.05 0.06 0.05 0.04 0.04 0.03 0.02 0.01 0.01 0.01 0.01 0.01 0.01 0.01 0.02 0.03
0.04 0.06 0.07 0.08 0.06 0.06 0.05 0.06 0.07 0.07 0.07 0.06 0.06 0.06 0.04 0.03 0.03 0.03 0.03 0.04 0.05 0.05 0.05 0.06 0.06 0.07 0.05 0.06 0.06 0.04 0.04 0.04 0.03 0.03 0.03 0.02 0.01 0.01 0.01 0.01 0.01 0.01 0.01
0.07 0.07 0.08 0.09 0.07 0.05 0.05 0.04 0.05 0.06 0.07 0.06 0.06 0.06 0.05 0.04 0.04 0.03 0.02 0.01 0.03 0.04 0.05 0.06 0.08 0.07 0.05 0.07 0.07 0.06 0.05 0.05 0.04 0.03 0.05 0.04 0.04 0.03 0.01 0.01 0.01 0.01 0.01
0.07 0.08 0.08 0.08 0.07 0.06 0.06 0.04 0.04 0.04 0.05 0.05 0.05 0.05 0.04 0.03 0.03 0.03 0.03 0.01 0.01 0.02 0.03 0.05 0.06 0.06 0.06 0.07 0.07 0.06 0.06 0.05 0.04 0.05 0.06 0.05 0.04 0.03 0.02 0.01 0.01 0.01 0.01
0.08 0.07 0.07 0.07 0.07 0.05 0.05 0.04 0.04 0.04 0.04 0.04 0.04 0.04 0.05 0.05 0.03 0.02 0.03 0.03 0.02 0.01 0.02 0.02 0.03 0.05 0.06 0.07 0.07 0.06 0.06 0.05 0.05 0.05 0.07 0.07 0.04 0.03 0.02 0.02 0.02 0.01 0.01
0.09 0.08 0.06 0.06 0.05 0.06 0.05 0.03 0.03 0.04 0.05 0.05 0.04 0.04 0.04 0.04 0.03 0.02 0.02 0.03 0.03 0.02 0.01 0.01 0.02 0.02 0.03 0.05 0.06 0.05 0.05 0.05 0.05 0.04 0.05 0.07 0.06 0.05 0.03 0.03 0.02 0.02 0.02
0.04 0.05 0.06 0.06 0.05 0.05 0.05 0.04 0.03 0.03 0.04 0.04 0.05 0.05 0.04 0.04 0.04 0.03 0.03 0.04 0.03 0.03 0.02 0.02 0.02 0.02 0.02 0.02 0.05 0.06 0.06 0.06 0.05 0.05 0.04 0.05 0.06 0.07 0.05 0.04 0.03 0.03 0.03
MSLP
1014.39 1014.57 1014.69 1014.80 1014.90 1015.04 1015.21 1015.39 1015.57 1015.72 1015.81 1015.84 1015.82 1015.78 1015.75 1015.77 1015.85 1016.00 1016.18 1016.37 1016.51 1016.57 1016.51 1016.35 1016.10 1015.80 1015.51 1015.28 1015.17 1015.19 1015.37 1015.70 1016.16 1016.73 1017.36 1018.03 1018.70 1019.33 1019.92 1020.43 1020.87 1021.24 1021.55
1014.52 1014.71 1014.84 1014.96 1015.09 1015.24 1015.43 1015.64 1015.84 1016.02 1016.15 1016.21 1016.21 1016.18 1016.14 1016.13 1016.16 1016.25 1016.38 1016.53 1016.65 1016.71 1016.69 1016.57 1016.35 1016.07 1015.77 1015.51 1015.32 1015.26 1015.34 1015.59 1016.00 1016.54 1017.19 1017.90 1018.63 1019.34 1019.99 1020.55 1021.02 1021.39 1021.69
1014.68 1014.85 1014.99 1015.12 1015.26 1015.42 1015.62 1015.85 1016.08 1016.29 1016.45 1016.55 1016.58 1016.57 1016.52 1016.48 1016.47 1016.50 1016.57 1016.66 1016.76 1016.82 1016.81 1016.72 1016.54 1016.29 1016.00 1015.70 1015.46 1015.32 1015.31 1015.47 1015.82 1016.32 1016.97 1017.71 1018.50 1019.28 1020.00 1020.62 1021.12 1021.52 1021.82
1014.81 1014.97 1015.10 1015.23 1015.37 1015.54 1015.75 1015.99 1016.25 1016.48 1016.68 1016.82 1016.90 1016.91 1016.88 1016.83 1016.78 1016.76 1016.78 1016.82 1016.88 1016.92 1016.91 1016.85 1016.70 1016.47 1016.19 1015.88 1015.60 1015.39 1015.31 1015.39 1015.66 1016.12 1016.75 1017.51 1018.33 1019.16 1019.94 1020.62 1021.18 1021.61 1021.94
1014.87 1015.02 1015.14 1015.27 1015.42 1015.59 1015.80 1016.05 1016.31 1016.58 1016.82 1017.00 1017.13 1017.19 1017.20 1017.16 1017.11 1017.06 1017.03 1017.02 1017.03 1017.05 1017.04 1016.98 1016.85 1016.65 1016.39 1016.08 1015.77 1015.52 1015.37 1015.38 1015.58 1015.99 1016.58 1017.32 1018.16 1019.02 1019.85 1020.58 1021.19 1021.66 1022.02
1014.86 1015.00 1015.12 1015.26 1015.40 1015.58 1015.79 1016.03 1016.30 1016.58 1016.85 1017.08 1017.27 1017.39 1017.45 1017.45 1017.42 1017.36 1017.31 1017.27 1017.24 1017.23 1017.21 1017.16 1017.05 1016.88 1016.64 1016.35 1016.04 1015.76 1015.57 1015.52 1015.65 1015.99 1016.52 1017.22 1018.03 1018.89 1019.73 1020.50 1021.14 1021.66 1022.06
1014.79 1014.94 1015.08 1015.22 1015.38 1015.55 1015.75 1015.98 1016.24 1016.52 1016.81 1017.08 1017.31 1017.50 1017.62 1017.68 1017.68 1017.65 1017.60 1017.54 1017.50 1017.47 1017.44 1017.39 1017.31 1017.18 1016.98 1016.72 1016.43 1016.16 1015.94 1015.84 1015.91 1016.16 1016.61 1017.24 1017.99 1018.80 1019.63 1020.39 1021.06 1021.61 1022.04
1014.70 1014.87 1015.04 1015.21 1015.39 1015.56 1015.75 1015.95 1016.18 1016.44 1016.73 1017.01 1017.28 1017.52 1017.70 1017.82 1017.88 1017.88 1017.85 1017.80 1017.76 1017.72 1017.70 1017.68 1017.63 1017.54 1017.40 1017.20 1016.96 1016.71 1016.50 1016.37 1016.37 1016.54 1016.89 1017.41 1018.06 1018.80 1019.56 1020.29 1020.94 1021.50 1021.96
1014.60 1014.81 1015.03 1015.25 1015.44 1015.63 1015.80 1015.97 1016.16 1016.39 1016.64 1016.91 1017.20 1017.46 1017.69 1017.86 1017.98 1018.02 1018.02 1018.00 1017.97 1017.95 1017.95 1017.96 1017.96 1017.94 1017.88 1017.76 1017.59 1017.40 1017.21 1017.06 1017.02 1017.11 1017.35 1017.74 1018.26 1018.88 1019.54 1020.20 1020.82 1021.36 1021.83
1014.50 1014.76 1015.04 1015.30 1015.53 1015.73 1015.89 1016.04 1016.18 1016.35 1016.56 1016.80 1017.06 1017.33 1017.58 1017.79 1017.94 1018.04 1018.08 1018.08 1018.08 1018.09 1018.13 1018.18 1018.25 1018.31 1018.34 1018.33 1018.25 1018.13 1017.99 1017.86 1017.79 1017.80 1017.94 1018.20 1018.58 1019.05 1019.59 1020.15 1020.70 1021.22 1021.68
1014.35 1014.66 1015.00 1015.31 1015.58 1015.80 1015.97 1016.09 1016.21 1016.33 1016.48 1016.67 1016.90 1017.15 1017.40 1017.62 1017.80 1017.92 1017.99 1018.03 1018.07 1018.11 1018.19 1018.30 1018.44 1018.58 1018.71 1018.81 1018.84 1018.82 1018.75 1018.66 1018.58 1018.55 1018.59 1018.73 1018.98 1019.31 1019.72 1020.17 1020.64 1021.11 1021.56
1014.09 1014.45 1014.83 1015.20 1015.52 1015.77 1015.96 1016.09 1016.18 1016.27 1016.37 1016.52 1016.71 1016.93 1017.16 1017.37 1017.56 1017.69 1017.79 1017.86 1017.92 1018.00 1018.12 1018.28 1018.48 1018.71 1018.94 1019.13 1019.28 1019.36 1019.38 1019.35 1019.30 1019.25 1019.25 1019.30 1019.44 1019.65 1019.94 1020.28 1020.67 1021.08 1021.50
1013.68 1014.06 1014.48 1014.90 1015.27 1015.57 1015.79 1015.95 1016.05 1016.13 1016.22 1016.34 1016.49 1016.67 1016.88 1017.08 1017.26 1017.40 1017.51 1017.60 1017.68 1017.79 1017.94 1018.14 1018.39 1018.68 1018.98 1019.27 1019.51 1019.70 1019.81 1019.87 1019.87 1019.85 1019.84 1019.86 1019.93 1020.06 1020.25 1020.51 1020.82 1021.17 1021.55
1013.08 1013.48 1013.93 1014.38 1014.79 1015.15 1015.43 1015.64 1015.78 1015.89 1015.99 1016.10 1016.24 1016.41 1016.59 1016.77 1016.94 1017.09 1017.20 1017.30 1017.40 1017.52 1017.69 1017.91 1018.18 1018.51 1018.86 1019.21 1019.54 1019.82 1020.03 1020.18 1020.27 1020.31 1020.34 1020.37 1020.42 1020.52 1020.66 1020.86 1021.11 1021.41 1021.75
1012.34 1012.74 1013.19 1013.67 1014.13 1014.55 1014.90 1015.17 1015.38 1015.55 1015.69 1015.82 1015.97 1016.13 1016.31 1016.48 1016.65 1016.79 1016.91 1017.02 1017.13 1017.26 1017.43 1017.65 1017.93 1018.26 1018.63 1019.02 1019.39 1019.74 1020.04 1020.29 1020.48 1020.62 1020.72 1020.81 1020.90 1021.00 1021.14 1021.31 1021.53 1021.79 1022.09
1011.51 1011.91 1012.37 1012.86 1013.35 1013.82 1014.24 1014.60 1014.88 1015.12 1015.31 1015.49 1015.67 1015.84 1016.03 1016.21 1016.38 1016.53 1016.67 1016.79 1016.91 1017.05 1017.21 1017.42 1017.68 1018.00 1018.35 1018.74 1019.14 1019.53 1019.90 1020.23 1020.52 1020.76 1020.97 1021.15 1021.32 1021.47 1021.63 1021.81 1022.02 1022.25 1022.52
1010.70 1011.09 1011.55 1012.05 1012.57 1013.07 1013.55 1013.97 1014.33 1014.63 1014.89 1015.12 1015.33 1015.53 1015.73 1015.92 1016.11 1016.29 1016.45 1016.60 1016.74 1016.89 1017.06 1017.26 1017.49 1017.77 1018.10 1018.46 1018.84 1019.25 1019.65 1020.05 1020.42 1020.77 1021.08 1021.37 1021.62 1021.85 1022.06 1022.27 1022.48 1022.70 1022.95
1009.97 1010.37 1010.82 1011.32 1011.85 1012.38 1012.89 1013.35 1013.77 1014.12 1014.43 1014.69 1014.93 1015.16 1015.38 1015.59 1015.81 1016.02 1016.22 1016.41 1016.59 1016.77 1016.95 1017.14 1017.36 1017.60 1017.88 1018.20 1018.56 1018.94 1019.36 1019.79 1020.22 1020.64 1021.04 1021.41 1021.75 1022.05 1022.32 1022.56 1022.79 1023.02 1023.25
1009.33 1009.75 1010.21 1010.70 1011.23 1011.76 1012.29 1012.77 1013.21 1013.59 1013.92 1014.21 1014.47 1014.71 1014.94 1015.18 1015.42 1015.67 1015.92 1016.16 1016.40 1016.62 1016.84 1017.04 1017.25 1017.47 1017.71 1017.98 1018.29 1018.64 1019.03 1019.46 1019.91 1020.37 1020.82 1021.25 1021.65 1022.01 1022.33 1022.60 1022.85 1023.09 1023.31
1008.73 1009.18 1009.66 1010.16 1010.68 1011.20 1011.72 1012.20 1012.65 1013.03 1013.37 1013.66 1013.91 1014.15 1014.39 1014.64 1014.91 1015.20 1015.50 1015.80 1016.11 1016.39 1016.66 1016.90 1017.12 1017.33 1017.55 1017.78 1018.04 1018.34 1018.69 1019.08 1019.51 1019.97 1020.43 1020.88 1021.30 1021.68 1022.02 1022.32 1022.59 1022.83 1023.07
1008.08 1008.57 1009.07 1009.58 1010.10 1010.62 1011.12 1011.60 1012.03 1012.41 1012.74 1013.02 1013.26 1013.50 1013.74 1013.99 1014.28 1014.60 1014.95 1015.31 1015.68 1016.03 1016.36 1016.65 1016.91 1017.13 1017.34 1017.54 1017.76 1018.02 1018.31 1018.65 1019.03 1019.44 1019.87 1020.29 1020.69 1021.07 1021.41 1021.71 1021.99 1022.25 1022.51
1007.27 1007.81 1008.34 1008.87 1009.40 1009.92 1010.42 1010.90 1011.33 1011.70 1012.03 1012.30 1012.54 1012.76 1013.00 1013.25 1013.55 1013.89 1014.27 1014.68 1015.11 1015.52 1015.91 1016.26 1016.56 1016.82 1017.04 1017.23 1017.43 1017.64 1017.88 1018.15 1018.47 1018.81 1019.18 1019.54 1019.89 1020.23 1020.54 1020.83 1021.11 1021.39 1021.68
1006.25 1006.83 1007.39 1007.95 1008.50 1009.04 1009.57 1010.06 1010.51 1010.91 1011.24 1011.53 1011.77 1012.00 1012.23 1012.49 1012.79 1013.14 1013.53 1013.97 1014.43 1014.89 1015.33 1015.73 1016.07 1016.37 1016.61 1016.82 1017.01 1017.19 1017.39 1017.61 1017.86 1018.13 1018.42 1018.71 1018.99 1019.27 1019.54 1019.81 1020.08 1020.37 1020.69
1005.05 1005.65 1006.24 1006.82 1007.41 1007.99 1008.56 1009.10 1009.60 1010.04 1010.42 1010.75 1011.03 1011.28 1011.52 1011.77 1012.07 1012.41 1012.80 1013.24 1013.70 1014.17 1014.64 1015.07 1015.45 1015.78 1016.06 1016.29 1016.49 1016.67 1016.85 1017.04 1017.24 1017.44 1017.66 1017.88 1018.10 1018.32 1018.54 1018.78 1019.04 1019.34 1019.68
1003.80 1004.39 1004.99 1005.59 1006.21 1006.84 1007.47 1008.08 1008.65 1009.17 1009.63 1010.02 1010.35 1010.64 1010.91 1011.17 1011.45 1011.77 1012.14 1012.55 1012.99 1013.44 1013.90 1014.34 1014.74 1015.09 1015.40 1015.66 1015.89 1016.09 1016.27 1016.45 1016.63 1016.80 1016.97 1017.14 1017.31 1017.48 1017.66 1017.87 1018.12 1018.41 1018.76
1002.69 1003.25 1003.82 1004.43 1005.07 1005.74 1006.43 1007.11 1007.76 1008.37 1008.91 1009.39 1009.79 1010.13 1010.43 1010.70 1010.98 1011.27 1011.59 1011.95 1012.34 1012.75 1013.17 1013.58 1013.98 1014.34 1014.67 1014.96 1015.22 1015.45 1015.66 1015.86 1016.04 1016.21 1016.37 1016.52 1016.66 1016.81 1016.97 1017.15 1017.38 1017.66 1018.00
Thickness
5756 5755 5752 5750 5749 5747 5746 5744 5743 5744 5743 5742 5742 5742 5742 5741 5740 5738 5735 5734 5734 5733 5732 5731 5729 5728 5726 5726 5725 5724 5723 5722 5721 5720 5719 5717 5716 5714 5713 5712 5711 5710 5709
5754 5753 5750 5748 5746 5745 5743 5742 5741 5741 5741 5740 5739 5739 5739 5738 5737 5735 5733 5732 5731 5731 5730 5729 5728 5726 5725 5725 5724 5722 5722 5721 5720 5718 5717 5716 5714 5713 5712 5710 5709 5708 5707
5752 5750 5748 5745 5744 5743 5741 5739 5738 5738 5738 5737 5736 5736 5736 5735 5734 5733 5731 5730 5729 5728 5728 5727 5726 5725 5724 5723 5722 5721 5721 5720 5719 5717 5716 5714 5713 5712 5710 5709 5707 5707 5706
5750 5747 5746 5744 5742 5741 5739 5737 5735 5734 5734 5734 5732 5733 5733 5733 5732 5731 5729 5729 5728 5727 5726 5725 5724 5723 5722 5721 5720 5719 5719 5719 5718 5716 5714 5713 5711 5710 5709 5708 5707 5705 5704
5747 5745 5743 5742 5740 5738 5736 5734 5731 5731 5729 5729 5729 5729 5730 5730 5729 5729 5727 5727 5726 5726 5724 5723 5721 5720 5719 5718 5718 5717 5717 5717 5716 5714 5712 5711 5710 5709 5707 5707 5705 5704 5703
5744 5742 5740 5738 5737 5735 5732 5730 5727 5727 5726 5726 5726 5726 5726 5726 5726 5725 5725 5724 5724 5724 5723 5722 5720 5718 5717 5716 5715 5715 5715 5714 5713 5711 5710 5709 5708 5707 5706 5705 5704 5703 5702
5741 5739 5737 5735 5733 5731 5729 5727 5724 5722 5721 5722 5719 5718 5720 5723 5723 5723 5722 5721 5721 5721 5721 5720 5719 5717 5715 5714 5713 5713 5712 5711 5710 5708 5707 5706 5705 5704 5704 5703 5701 5700 5700
5737 5736 5732 5731 5729 5727 5725 5723 5720 5718 5718 5719 5715 5710 5708 5710 5716 5721 5719 5718 5718 5718 5718 5718 5717 5716 5715 5713 5712 5711 5709 5708 5707 5706 5705 5703 5702 5701 5701 5700 5699 5698 5698
5734 5732 5729 5727 5726 5724 5722 5720 5718 5715 5712 5714 5714 5709 5703 5701 5705 5712 5714 5715 5715 5714 5715 5716 5715 5715 5714 5712 5710 5709 5707 5706 5704 5703 5702 5701 5699 5698 5697 5697 5696 5696 5695
5731 5729 5727 5724 5723 5721 5719 5717 5716 5714 5712 5709 5710 5710 5707 5705 5700 5699 5705 5710 5711 5711 5711 5713 5713 5712 5712 5710 5708 5706 5704 5703 5701 5700 5699 5698 5696 5695 5694 5694 5693 5692 5692
5728 5726 5724 5721 5719 5718 5716 5714 5713 5712 5711 5708 5706 5705 5704 5703 5702 5696 5695 5700 5704 5708 5709 5709 5709 5709 5709 5707 5706 5704 5702 5700 5698 5696 5695 5694 5693 5692 5691 5690 5690 5689 5689
5724 5723 5721 5718 5716 5715 5713 5712 5711 5709 5708 5707 5705 5703 5700 5698 5697 5696 5694 5695 5696 5702 5705 5706 5706 5706 5705 5704 5703 5701 5699 5697 5694 5693 5692 5691 5690 5689 5688 5687 5686 5686 5686
5720 5719 5718 5716 5714 5713 5712 5710 5708 5707 5706 5704 5702 5701 5700 5699 5699 5697 5693 5692 5692 5696 5700 5701 5703 5702 5701 5700 5699 5697 5695 5692 5690 5688 5687 5687 5686 5685 5684 5684 5683 5682 5682
5719 5718 5716 5714 5713 5711 5710 5708 5706 5705 5704 5702 5701 5699 5698 5698 5698 5696 5692 5689 5687 5689 5691 5693 5697 5698 5697 5696 5695 5693 5690 5688 5686 5685 5683 5682 5681 5681 5680 5679 5679 5678 5677
5717 5715 5713 5711 5710 5709 5707 5705 5703 5702 5701 5700 5698 5698 5696 5695 5695 5694 5693 5690 5684 5680 5682 5687 5689 5693 5693 5692 5690 5688 5686 5685 5683 5681 5680 5679 5678 5676 5676 5675 5674 5673 5672
5713 5712 5710 5709 5708 5707 5705 5702 5701 5700 5698 5697 5696 5694 5693 5692 5692 5691 5690 5688 5686 5681 5679 5684 5685 5687 5688 5688 5686 5685 5683 5682 5680 5678 5677 5675 5674 5673 5672 5671 5670 5669 5668
5709 5708 5707 5706 5705 5703 5702 5699 5697 5697 5695 5693 5692 5691 5690 5689 5688 5686 5686 5684 5683 5681 5676 5680 5682 5683 5683 5682 5680 5680 5679 5678 5676 5675 5673 5672 5671 5669 5668 5667 5665 5665 5664
5705 5704 5704 5703 5702 5700 5698 5696 5694 5693 5691 5688 5687 5686 5685 5685 5684 5682 5681 5679 5679 5679 5675 5673 5675 5676 5677 5677 5677 5675 5675 5675 5673 5672 5670 5669 5668 5666 5665 5664 5662 5661 5660
5700 5700 5699 5698 5697 5696 5694 5693 5691 5689 5687 5685 5684 5683 5681 5680 5679 5678 5677 5675 5675 5675 5674 5671 5671 5672 5672 5674 5672 5671 5671 5670 5670 5669 5667 5665 5664 5663 5661 5660 5659 5657 5656
5695 5695 5694 5694 5693 5692 5691 5690 5688 5686 5684 5683 5682 5680 5679 5677 5675 5674 5673 5672 5672 5670 5669 5667 5667 5667 5668 5669 5668 5665 5663 5663 5663 5664 5662 5661 5660 5658 5657 5656 5655 5654 5652
5692 5691 5690 5689 5689 5688 5687 5685 5684 5683 5680 5679 5678 5677 5676 5674 5673 5671 5670 5669 5668 5666 5665 5663 5663 5663 5663 5662 5661 5662 5658 5658 5658 5659 5657 5656 5654 5653 5651 5650 5650 5650 5649
5687 5686 5685 5684 5683 5683 5682 5680 5679 5678 5677 5675 5674 5673 5672 5671 5669 5667 5666 5666 5664 5662 5661 5660 5659 5658 5659 5659 5659 5657 5654 5652 5649 5654 5651 5649 5650 5648 5648 5647 5647 5647 5646
5682 5681 5680 5679 5677 5676 5675 5674 5673 5673 5672 5671 5670 5669 5668 5668 5666 5664 5663 5662 5661 5660 5659 5657 5656 5656 5656 5657 5654 5652 5650 5648 5646 5648 5645 5643 5644 5643 5644 5644 5644 5643 5642
5677 5676 5675 5674 5673 5671 5670 5669 5668 5668 5668 5667 5666 5665 5663 5662 5662 5660 5659 5658 5657 5657 5656 5655 5654 5654 5654 5653 5651 5649 5646 5645 5644 5644 5642 5637 5638 5638 5639 5639 5639 5638 5637
5672 5671 5671 5670 5668 5666 5664 5663 5662 5663 5663 5662 5662 5662 5660 5658 5656 5654 5653 5653 5652 5653 5653 5652 5651 5650 5649 5647 5646 5642 5640 5637 5635 5636 5637 5633 5633 5632 5633 5634 5634 5633 5632
5668 5667 5667 5666 5665 5662 5659 5658 5657 5658 5657 5657 5657 5656 5654 5652 5650 5648 5647 5647 5646 5646 5647 5647 5645 5645 5644 5643 5640 5637 5635 5632 5630 5629 5632 5629 5627 5626 5625 5628 5628 5626 5625